COSMOS 886 DEB

Satellite information

Favourite Embed

Satellite Type and Status

DEBRISIN ORBIT

Key statistics

Satellite COSMOS 886 DEB at a glance.

Uptime

17884

Days in orbit

Revolutions

≈ 11.5

Per day

Orbit

MEO

Medium Earth Orbit

Inclination

65.8

Latest

Satellite identification and parameters

Extended collection of information and parameters for COSMOS 886 DEB.

Object identification

Identified? True

Debris? True

Object name: COSMOS 886 DEB

International designator: 1976-126BS

Object number (NORAD): 14800

Object ID (CCSDS): 14800

Country: COMMONWEALTH OF INDEPENDENT STATES (CIS)

Current information (Y/N): Y

RCS size: MEDIUM

Orbital parameters

Period: 125.132 minutes

Inclination: 65.7557 deg

SMA: 8287.165 km

Apoapsis: 2419.293 km

Periapsis: 1398.767 km

RAAN: 353.8275 deg

Eccentricy: 0.06157265

Argument of periapsis: 147.8473 deg

Mean anomaly: 242.1469 deg

Mean motion: 11.50783948 rev/day

Mean motion (dot): -0.00000431 rev/day2

B* drag term: -0.0055156778 1/REarth

Two-line elements (TLE)

Creation date: Dec. 11, 2025, 10:54 a.m.

Reference frame: TEME

Reference center: EARTH

Epoch: Dec. 11, 2025, 6:32 a.m. UTC

TLE line 0: 0 COSMOS 886 DEB

TLE line 1: 1 14800U 76126BS 25345.27289799 -.00000431 00000-0 -55157-2 0 9992

TLE line 2: 2 14800 65.7557 353.8275 0615726 147.8473 242.1469 11.50783948805179

Live tracking on map

Real-time ground track for satellite COSMOS 886 DEB.

In-orbit conjunctions

A list of the most updated potential collisions computed for object COSMOS 886 DEB.

Target Orbit TCA Probability of collision Miss distance Type
COSMOS 2248 LEO 2024-12-24 14:19:42 0.000172826 692.0 (m) PAYLOAD

Associated space launch

Second generation ASAT satellite

COSMOS 886 DEB was lifted into orbit during the mission ‘Tsiklon-2 | IS-A 4’, on board a Tsiklon-2 space rocket.

The launch took place on Dec. 27, 1976, 12:05 p.m. from 90.

For more information about the launch, click the button.

Launch to space Tsiklon-2 | IS-A 4
Tsiklon-2 | IS-A 4

Agency: N/A

Status: Launch Successful

Launch date: Dec. 27, 1976, 12:05 p.m. UTC

Rocket: Tsiklon-2

Launch pad: 90

Location: Baikonur Cosmodrome, Republic of Kazakhstan

...

Latest news about this satellite

There are no fresh news available about this satellite. Check back as we update our databases every day.


Newsletter sign-up

Weekly statistics, charts and insights to help you stay on top of the space industry.